Zacatecas Airport, Mexico

8:22 PM CDT on October 23, 2017 (GMT -0500)
Gen Leobardo C Ruiz International

Weather History for MMZC - January, 2013

Change the Weather History Date:

Tuesday, January 29, 2013

  Actual Average Record
Temperature  
Mean Temperature 54 °F -  
Max Temperature 66 °F 67 °F 77 °F (2005)
Min Temperature 42 °F 35 °F 24 °F (2016)
Degree Days  
Heating Degree Days 11    
Growing Degree Days 4 (Base 50)    
Moisture  
Dew Point 31 °F    
Average Humidity 45    
Maximum Humidity 66    
Minimum Humidity 26    
Precipitation  
Precipitation 0.00 in - - ()
Sea Level Pressure  
Sea Level Pressure 30.23 in    
Wind  
Wind Speed 11 mph ()    
Max Wind Speed 28 mph    
Max Gust Speed 40 mph    
Visibility 10.0 miles    
Events      
Averages and records for this station are not official NWS values.
T = Trace of Precipitation, MM = Missing Value Source: Averaged Metar Reports

Daily Weather History Graph

Daily Weather History Graph

Search for Another Location

Airport or City:

Trip Planner

Search our weather history database for the weather conditions in past years. The results will help you decide how hot, cold, wet, or windy it might be!

Date:

Astronomy

Jan. 29, 2013 Rise Set
Actual Time 7:31 AM CST 6:36 PM CST
Civil Twilight 7:07 AM CST 7:00 PM CST
Nautical Twilight 6:40 AM CST 7:27 PM CST
Astronomical Twilight 6:13 AM CST 7:54 PM CST
Moon 9:07 PM CST (1/29) 8:53 AM CST (1/29)
Length of Visible Light 11h 52m
Length of Day
11h 05m
Waning Gibbous, 93% of the Moon is Illuminated
Jan 29
Waning Gibbous
Feb 3
Last Quarter
Feb 10
New
Feb 17
First Quarter
Feb 25
Full

Hourly Weather History & Observations

Time (CST) Temp. Windchill Dew Point Humidity Pressure Visibility Wind Dir Wind Speed Gust Speed Precip Events Conditions
12:42 AM 48.2 °F - 32.0 °F 54% 30.28 in 10.0 mi Calm Calm - N/A   Clear
1:42 AM 46.4 °F 42.4 °F 30.2 °F 53% 30.28 in 10.0 mi South 8.1 mph - N/A   Clear
2:42 AM 44.6 °F 40.7 °F 30.2 °F 57% 30.28 in 10.0 mi SSW 6.9 mph - N/A   Clear
3:43 AM 44.6 °F 39.7 °F 32.0 °F 61% 30.26 in 10.0 mi South 9.2 mph - N/A   Clear
4:41 AM 44.6 °F 39.2 °F 30.2 °F 57% 30.25 in 10.0 mi SSW 10.4 mph - N/A   Clear
5:42 AM 44.6 °F 38.1 °F 30.2 °F 57% 30.25 in 10.0 mi SSW 13.8 mph - N/A   Clear
6:42 AM 44.6 °F 38.1 °F 30.2 °F 57% 30.25 in 10.0 mi SSW 13.8 mph - N/A   Clear
7:49 AM 42.8 °F 35.1 °F 32.0 °F 66% 30.25 in 10.0 mi SSW 16.1 mph - N/A   Partly Cloudy
8:42 AM 48.2 °F - 33.8 °F 58% 30.28 in 10.0 mi SSW 13.8 mph - N/A   Scattered Clouds
9:43 AM 57.2 °F - 33.8 °F 41% 30.26 in 10.0 mi SSW 17.3 mph 28.8 mph N/A   Scattered Clouds
10:43 AM 64.4 °F - 33.8 °F 32% 30.26 in 10.0 mi SW 17.3 mph 28.8 mph N/A   Mostly Cloudy
11:42 AM 64.4 °F - 32.0 °F 30% 30.24 in 10.0 mi SW 23.0 mph 34.5 mph N/A   Mostly Cloudy
12:42 PM 66.2 °F - 32.0 °F 28% 30.22 in 10.0 mi West 23.0 mph 34.5 mph N/A   Mostly Cloudy
1:43 PM 64.4 °F - 28.4 °F 26% 30.21 in 10.0 mi West 23.0 mph 40.3 mph N/A   Mostly Cloudy
2:41 PM 66.2 °F - 30.2 °F 26% 30.19 in 10.0 mi WSW 23.0 mph 34.5 mph N/A   Mostly Cloudy
3:47 PM 66.2 °F - 30.2 °F 26% 30.18 in 10.0 mi West 27.6 mph - N/A   Mostly Cloudy
4:41 PM 62.6 °F - 30.2 °F 30% 30.18 in 10.0 mi WSW 23.0 mph - N/A   Mostly Cloudy
5:41 PM 62.6 °F - 32.0 °F 32% 30.18 in 10.0 mi SW 23.0 mph - N/A   Mostly Cloudy
6:41 PM 57.2 °F - 32.0 °F 38% 30.20 in 10.0 mi SW 16.1 mph - N/A   Mostly Cloudy
7:41 PM 57.2 °F - 32.0 °F 38% 30.21 in 10.0 mi SW 11.5 mph - N/A   Mostly Cloudy
8:41 PM 51.8 °F - 30.2 °F 44% 30.21 in 10.0 mi South 6.9 mph - N/A   Mostly Cloudy
9:42 PM 48.2 °F - 30.2 °F 50% 30.21 in 10.0 mi WSW 11.5 mph - N/A   Partly Cloudy
10:41 PM 44.6 °F 42.2 °F 30.2 °F 57% 30.23 in 10.0 mi ESE 4.6 mph - N/A   Partly Cloudy
11:43 PM 44.6 °F 39.7 °F 30.2 °F 57% 30.24 in 10.0 mi SW 9.2 mph - N/A   Scattered Clouds